����,���ϕ���(m/s),���ϕ���,�ő�u�ԕ���(m/s),�ő啗��������,�C��(��),���x(%),10���Ԉړ��ώZ�J��(mm),1���Ԉړ��ώZ�J��(mm),���J��(mm),�݌v�J��(mm),����(���ώZ)(MJ/m2),����(���ώZ)(min),���n�C��(hPa),�C�ʋC��(hPa)
2022-03-28T00:00:00+09:00,0.6,�k��,1.2,�k��,8.2,89.3,0,0,0,0,21.46,540,1002.7,1016.9
2022-03-28T00:01:00+09:00,0.6,�k��,1.2,�k��,8,88.8,0,0,0,0,0,0,1002.7,1016.9
2022-03-28T00:02:00+09:00,0.7,�k��,1.2,�k��,7.9,88.5,0,0,0,0,0,0,1002.7,1016.9
2022-03-28T00:03:00+09:00,0.6,�k��,1.2,�k��,7.8,88.3,0,0,0,0,0,0,1002.7,1016.9
2022-03-28T00:04:00+09:00,0.6,�k��,1.2,�k��,7.8,88.2,0,0,0,0,0,0,1002.6,1016.8
2022-03-28T00:05:00+09:00,0.6,�k��,1.2,�k��,7.8,88.8,0,0,0,0,0,0,1002.7,1016.9
2022-03-28T00:06:00+09:00,0.6,�k��,1.2,�k��,7.7,88.8,0,0,0,0,0,0,1002.7,1016.9
2022-03-28T00:07:00+09:00,0.6,�k��,1.2,�k��,7.6,88.9,0,0,0,0,0,0,1002.6,1016.8
2022-03-28T00:08:00+09:00,0.6,�k��,1.2,�k��,7.6,89.1,0,0,0,0,0,0,1002.6,1016.8
2022-03-28T00:09:00+09:00,0.6,�k��,1.1,�k��,7.7,89.8,0,0,0,0,0,0,1002.6,1016.8
2022-03-28T00:10:00+09:00,0.5,�k��,1,�k,7.9,90.7,0,0,0,0,0,0,1002.6,1016.8
2022-03-28T00:11:00+09:00,0.5,�k��,1.2,�k�k��,7.9,90.8,0,0,0,0,0,0,1002.6,1016.8
2022-03-28T00:12:00+09:00,0.5,�k�k��,1.2,�k�k��,7.9,90.7,0,0,0,0,0,0,1002.6,1016.8
2022-03-28T00:13:00+09:00,0.5,�k�k��,1.2,�k�k��,8,90.8,0,0,0,0,0,0,1002.6,1016.8
2022-03-28T00:14:00+09:00,0.6,�k�k��,1.2,�k�k��,8.2,91.4,0,0,0,0,0,0,1002.6,1016.8
2022-03-28T00:15:00+09:00,0.6,�k�k��,1.2,�k�k��,7.9,90.4,0,0,0,0,0,0,1002.6,1016.8
2022-03-28T00:16:00+09:00,0.6,�k�k��,1.2,�k�k��,7.9,89.8,0,0,0,0,0,0,1002.7,1016.9
2022-03-28T00:17:00+09:00,0.6,�k�k��,1.2,�k�k��,7.8,89.8,0,0,0,0,0,0,1002.7,1016.9
2022-03-28T00:18:00+09:00,0.7,�k�k��,1.2,�k�k��,7.9,89.8,0,0,0,0,0,0,1002.6,1016.8
2022-03-28T00:19:00+09:00,0.7,�k�k��,1.6,�k��,8,90.2,0,0,0,0,0,0,1002.7,1016.9
2022-03-28T00:20:00+09:00,0.7,�k�k��,1.6,�k��,7.9,89.9,0,0,0,0,0,0,1002.7,1016.9
2022-03-28T00:21:00+09:00,0.7,�k�k��,1.6,�k��,7.8,89.4,0,0,0,0,0,0,1002.8,1017
2022-03-28T00:22:00+09:00,0.8,�k�k��,1.6,�k��,7.8,89.5,0,0,0,0,0,0,1002.8,1017
2022-03-28T00:23:00+09:00,0.8,�k�k��,1.6,�k��,7.8,89.8,0,0,0,0,0,0,1002.8,1017
2022-03-28T00:24:00+09:00,0.8,�k��,1.6,�k��,7.8,89.6,0,0,0,0,0,0,1002.9,1017.1
2022-03-28T00:25:00+09:00,0.8,�k��,1.6,�k��,7.8,89.6,0,0,0,0,0,0,1002.9,1017.1
2022-03-28T00:26:00+09:00,0.8,�k��,1.6,�k��,7.6,89.4,0,0,0,0,0,0,1002.9,1017.1
2022-03-28T00:27:00+09:00,0.8,�k��,1.6,�k��,7.9,89.7,0,0,0,0,0,0,1002.9,1017.1
2022-03-28T00:28:00+09:00,0.8,�k�k��,2,�k,7.8,90,0,0,0,0,0,0,1002.9,1017.1
2022-03-28T00:29:00+09:00,0.8,�k�k��,2,�k,7.8,90,0,0,0,0,0,0,1002.9,1017.1
2022-03-28T00:30:00+09:00,0.7,�k�k��,2,�k,7.5,89.4,0,0,0,0,0,0,1002.9,1017.1
2022-03-28T00:31:00+09:00,0.7,�k�k��,2,�k,7.6,89.2,0,0,0,0,0,0,1002.9,1017.1
2022-03-28T00:32:00+09:00,0.7,�k�k��,2,�k,7.6,90,0,0,0,0,0,0,1002.9,1017.1
2022-03-28T00:33:00+09:00,0.6,�k�k��,2,�k,7.4,89.5,0,0,0,0,0,0,1002.9,1017.1
2022-03-28T00:34:00+09:00,0.6,�k�k��,2,�k,7.5,90,0,0,0,0,0,0,1002.9,1017.1
2022-03-28T00:35:00+09:00,0.5,�k�k��,2,�k,7.6,90.2,0,0,0,0,0,0,1002.9,1017.1
2022-03-28T00:36:00+09:00,0.6,�k,2,�k,7.6,90.6,0,0,0,0,0,0,1002.9,1017.1
2022-03-28T00:37:00+09:00,0.6,�k,2,�k,7.6,90.7,0,0,0,0,0,0,1002.9,1017.1
2022-03-28T00:38:00+09:00,0.6,�k,1.8,�k�k��,7.6,90.9,0,0,0,0,0,0,1002.9,1017.1
2022-03-28T00:39:00+09:00,0.6,�k,1.8,�k�k��,7.5,90,0,0,0,0,0,0,1003,1017.2
2022-03-28T00:40:00+09:00,0.6,�k,1.8,�k�k��,7.4,90.1,0,0,0,0,0,0,1002.9,1017.1
2022-03-28T00:41:00+09:00,0.6,�k,1.8,�k�k��,7.3,89.7,0,0,0,0,0,0,1002.9,1017.1
2022-03-28T00:42:00+09:00,0.6,�k,1.8,�k�k��,7.2,90,0,0,0,0,0,0,1003,1017.2
2022-03-28T00:43:00+09:00,0.7,�k,2.1,�k�k��,7.4,90.4,0,0,0,0,0,0,1003,1017.2
2022-03-28T00:44:00+09:00,0.8,�k,2.2,�k�k��,7.5,91.3,0,0,0,0,0,0,1003,1017.2
2022-03-28T00:45:00+09:00,0.9,�k,2.2,�k�k��,7.6,91.5,0,0,0,0,0,0,1003.1,1017.3
2022-03-28T00:46:00+09:00,0.9,�k,2.2,�k�k��,7.6,91.5,0,0,0,0,0,0,1003.1,1017.3
2022-03-28T00:47:00+09:00,0.8,�k,2.2,�k�k��,7.5,91.2,0,0,0,0,0,0,1003,1017.2
2022-03-28T00:48:00+09:00,0.8,�k,2.2,�k�k��,7.4,90.7,0,0,0,0,0,0,1003,1017.2
2022-03-28T00:49:00+09:00,0.9,�k,2.2,�k�k��,7.4,90.5,0,0,0,0,0,0,1003,1017.2
2022-03-28T00:50:00+09:00,0.9,�k,2.2,�k�k��,7.3,90.2,0,0,0,0,0,0,1003.1,1017.3
2022-03-28T00:51:00+09:00,1,�k,2.2,�k�k��,7.4,90.6,0,0,0,0,0,0,1003.1,1017.3
2022-03-28T00:52:00+09:00,1,�k,2.2,�k�k��,7.5,90.7,0,0,0,0,0,0,1003.1,1017.3
2022-03-28T00:53:00+09:00,0.9,�k,2.2,�k�k��,7.5,90.9,0,0,0,0,0,0,1003.1,1017.3
2022-03-28T00:54:00+09:00,0.9,�k�k��,1.8,�k��,7.6,91,0,0,0,0,0,0,1003.1,1017.3
2022-03-28T00:55:00+09:00,0.9,�k�k��,1.8,�k��,7.6,91.1,0,0,0,0,0,0,1003.2,1017.4
2022-03-28T00:56:00+09:00,0.9,�k�k��,1.8,�k��,7.5,90.6,0,0,0,0,0,0,1003.2,1017.4
2022-03-28T00:57:00+09:00,0.9,�k�k��,1.8,�k��,7.6,90.7,0,0,0,0,0,0,1003.2,1017.4
2022-03-28T00:58:00+09:00,0.9,�k�k��,1.8,�k��,7.5,90.2,0,0,0,0,0,0,1003.2,1017.4
2022-03-28T00:59:00+09:00,1,�k�k��,1.8,�k��,7.5,90.1,0,0,0,0,0,0,1003.2,1017.4
2022-03-28T01:00:00+09:00,0.9,�k�k��,1.8,�k��,7.4,90,0,0,0,0,0,0,1003.2,1017.4
2022-03-28T01:01:00+09:00,0.9,�k�k��,1.8,�k��,7.3,89.6,0,0,0,0,0,0,1003.2,1017.4
2022-03-28T01:02:00+09:00,0.8,�k�k��,1.8,�k��,7.4,90,0,0,0,0,0,0,1003.2,1017.4
2022-03-28T01:03:00+09:00,0.8,�k�k��,1.6,���k��,7.4,90,0,0,0,0,0,0,1003.2,1017.4
2022-03-28T01:04:00+09:00,0.8,�k�k��,1.6,���k��,7.4,90.4,0,0,0,0,0,0,1003.2,1017.4
2022-03-28T01:05:00+09:00,0.8,�k�k��,1.6,���k��,7.5,90.7,0,0,0,0,0,0,1003.2,1017.4
2022-03-28T01:06:00+09:00,0.7,�k�k��,1.6,���k��,7.5,90.6,0,0,0,0,0,0,1003.2,1017.4
2022-03-28T01:07:00+09:00,0.7,�k�k��,1.4,���k��,7.5,91,0,0,0,0,0,0,1003.2,1017.4
2022-03-28T01:08:00+09:00,0.6,�k�k��,1.4,���k��,7.3,90.3,0,0,0,0,0,0,1003.2,1017.4
2022-03-28T01:09:00+09:00,0.5,�k,1.2,�k,7.3,90.3,0,0,0,0,0,0,1003.2,1017.4
2022-03-28T01:10:00+09:00,0.6,�k,1.5,�k�k��,7.6,91.4,0,0,0,0,0,0,1003.3,1017.5
2022-03-28T01:11:00+09:00,0.6,�k,1.5,�k�k��,7.4,91.1,0,0,0,0,0,0,1003.3,1017.5
2022-03-28T01:12:00+09:00,0.6,�k,1.5,�k�k��,7.4,90.9,0,0,0,0,0,0,1003.3,1017.5
2022-03-28T01:13:00+09:00,0.6,�k,1.5,�k�k��,7.3,90.1,0,0,0,0,0,0,1003.4,1017.6
2022-03-28T01:14:00+09:00,0.6,�k,1.5,�k�k��,7.3,90.7,0,0,0,0,0,0,1003.4,1017.6
2022-03-28T01:15:00+09:00,0.6,�k,1.5,�k�k��,7.3,90.4,0,0,0,0,0,0,1003.4,1017.6
2022-03-28T01:16:00+09:00,0.6,�k�k��,1.5,�k�k��,7.4,90.7,0,0,0,0,0,0,1003.3,1017.5
2022-03-28T01:17:00+09:00,0.6,�k�k��,1.5,�k�k��,7.3,90.7,0,0,0,0,0,0,1003.3,1017.5
2022-03-28T01:18:00+09:00,0.6,�k�k��,1.5,�k�k��,7.3,90.6,0,0,0,0,0,0,1003.3,1017.5
2022-03-28T01:19:00+09:00,0.6,�k�k��,1.5,�k�k��,7.2,90.7,0,0,0,0,0,0,1003.3,1017.6
2022-03-28T01:20:00+09:00,0.5,�k�k��,1.5,�k�k��,7.2,90.6,0,0,0,0,0,0,1003.4,1017.7
2022-03-28T01:21:00+09:00,0.5,�k�k��,1.5,�k�k��,7.3,91.3,0,0,0,0,0,0,1003.4,1017.6
2022-03-28T01:22:00+09:00,0.5,�k�k��,1.5,�k�k��,7.3,91.5,0,0,0,0,0,0,1003.4,1017.6
2022-03-28T01:23:00+09:00,0.4,�k�k��,1.5,�k�k��,7.3,91.2,0,0,0,0,0,0,1003.3,1017.5
2022-03-28T01:24:00+09:00,0.4,�k�k��,1.5,�k�k��,7.3,91.2,0,0,0,0,0,0,1003.4,1017.6
2022-03-28T01:25:00+09:00,0.4,�k�k��,1.6,�k��,7.3,91.1,0,0,0,0,0,0,1003.4,1017.6
2022-03-28T01:26:00+09:00,0.4,�k�k��,1.6,�k��,7.4,91.5,0,0,0,0,0,0,1003.5,1017.7
2022-03-28T01:27:00+09:00,0.5,�k�k��,1.6,�k��,7.4,91.5,0,0,0,0,0,0,1003.5,1017.7
2022-03-28T01:28:00+09:00,0.5,�k,1.6,�k��,7.3,91.1,0,0,0,0,0,0,1003.5,1017.8
2022-03-28T01:29:00+09:00,0.5,�k,1.6,�k��,7.3,90.9,0,0,0,0,0,0,1003.5,1017.8
2022-03-28T01:30:00+09:00,0.5,�k�k��,1.6,�k��,7.3,90.9,0,0,0,0,0,0,1003.4,1017.6
2022-03-28T01:31:00+09:00,0.5,�k�k��,1.6,�k��,7.3,91.1,0,0,0,0,0,0,1003.5,1017.8
2022-03-28T01:32:00+09:00,0.6,�k�k��,2.3,�k��,7.3,91.1,0,0,0,0,0,0,1003.5,1017.8
2022-03-28T01:33:00+09:00,0.8,�k�k��,2.5,�k��,7.3,90.7,0,0,0,0,0,0,1003.5,1017.8
2022-03-28T01:34:00+09:00,0.8,�k�k��,2.5,�k��,7.5,91.4,0,0,0,0,0,0,1003.4,1017.6
2022-03-28T01:35:00+09:00,0.8,�k�k��,2.5,�k��,7.3,91,0,0,0,0,0,0,1003.3,1017.5
2022-03-28T01:36:00+09:00,0.8,�k�k��,2.5,�k��,7.3,90.5,0,0,0,0,0,0,1003.4,1017.6
2022-03-28T01:37:00+09:00,0.8,�k�k��,2.5,�k��,7.3,90.5,0,0,0,0,0,0,1003.5,1017.8
2022-03-28T01:38:00+09:00,0.9,�k�k��,2.5,�k��,7.3,90.6,0,0,0,0,0,0,1003.6,1017.9
2022-03-28T01:39:00+09:00,0.9,�k�k��,2.5,�k��,7.2,90.1,0,0,0,0,0,0,1003.6,1017.9
2022-03-28T01:40:00+09:00,0.9,�k�k��,2.5,�k��,7,90,0,0,0,0,0,0,1003.5,1017.8
2022-03-28T01:41:00+09:00,0.9,�k�k��,2.5,�k��,7.1,89.9,0,0,0,0,0,0,1003.5,1017.8
2022-03-28T01:42:00+09:00,0.9,�k�k��,2.5,�k��,7.1,90.4,0,0,0,0,0,0,1003.5,1017.8
2022-03-28T01:43:00+09:00,0.7,�k�k��,2.1,�k�k��,6.9,90.1,0,0,0,0,0,0,1003.5,1017.8
2022-03-28T01:44:00+09:00,0.7,�k�k��,2.1,�k�k��,7,90.3,0,0,0,0,0,0,1003.5,1017.8
2022-03-28T01:45:00+09:00,0.7,�k�k��,2.1,�k�k��,7.2,91.3,0,0,0,0,0,0,1003.5,1017.8
2022-03-28T01:46:00+09:00,0.7,�k�k��,2.1,�k�k��,7.1,91.2,0,0,0,0,0,0,1003.5,1017.8
2022-03-28T01:47:00+09:00,0.7,�k�k��,1.7,�k,7,90.8,0,0,0,0,0,0,1003.5,1017.8
2022-03-28T01:48:00+09:00,0.6,�k�k��,1.6,��,6.8,90.5,0,0,0,0,0,0,1003.5,1017.8
2022-03-28T01:49:00+09:00,0.6,�k�k��,1.6,��,7,91,0,0,0,0,0,0,1003.5,1017.8
2022-03-28T01:50:00+09:00,0.6,�k��,1.6,��,6.7,90.9,0,0,0,0,0,0,1003.5,1017.8
2022-03-28T01:51:00+09:00,0.6,�k�k��,1.4,��,6.9,91.2,0,0,0,0,0,0,1003.6,1017.9
2022-03-28T01:52:00+09:00,0.6,�k�k��,1.4,��,6.9,91.9,0,0,0,0,0,0,1003.6,1017.9
2022-03-28T01:53:00+09:00,0.6,�k�k��,1.4,��,6.9,91.8,0,0,0,0,0,0,1003.6,1017.9
2022-03-28T01:54:00+09:00,0.6,�k�k��,1.4,��,7,92,0,0,0,0,0,0,1003.6,1017.9
2022-03-28T01:55:00+09:00,0.6,�k�k��,1.4,��,7,92.7,0,0,0,0,0,0,1003.6,1017.9
2022-03-28T01:56:00+09:00,0.6,�k,1.4,��,7,92.3,0,0,0,0,0,0,1003.6,1017.9
2022-03-28T01:57:00+09:00,0.7,�k,1.4,��,6.9,91.9,0,0,0,0,0,0,1003.6,1017.9
2022-03-28T01:58:00+09:00,0.7,�k,1.4,��,6.9,91.7,0,0,0,0,0,0,1003.6,1017.9
2022-03-28T01:59:00+09:00,0.7,�k�k��,1.4,��,6.9,91.9,0,0,0,0,0,0,1003.7,1018
2022-03-28T02:00:00+09:00,0.7,�k��,1.4,�k,6.7,91.2,0,0,0,0,0,0,1003.7,1018
2022-03-28T02:01:00+09:00,0.7,�k�k��,1.4,�k,6.7,91.2,0,0,0,0,0,0,1003.7,1018
2022-03-28T02:02:00+09:00,0.7,�k�k��,1.5,�k�k��,6.8,91.6,0,0,0,0,0,0,1003.7,1018
2022-03-28T02:03:00+09:00,0.7,�k�k��,1.5,�k�k��,6.9,92,0,0,0,0,0,0,1003.7,1018
2022-03-28T02:04:00+09:00,0.6,�k�k��,1.5,�k�k��,7.1,93,0,0,0,0,0,0,1003.7,1018
2022-03-28T02:05:00+09:00,0.6,�k�k��,1.5,�k�k��,6.7,91.9,0,0,0,0,0,0,1003.8,1018.1
2022-03-28T02:06:00+09:00,0.6,�k�k��,1.5,�k�k��,6.8,91.9,0,0,0,0,0,0,1003.8,1018.1
2022-03-28T02:07:00+09:00,0.5,�k��,1.5,�k�k��,6.7,92.2,0,0,0,0,0,0,1003.8,1018.1
2022-03-28T02:08:00+09:00,0.5,�k��,1.5,�k�k��,6.5,91.1,0,0,0,0,0,0,1003.8,1018.1
2022-03-28T02:09:00+09:00,0.4,�k,1.5,�k�k��,6.4,91.1,0,0,0,0,0,0,1003.8,1018.1
2022-03-28T02:10:00+09:00,0.4,���쓌,1.5,�k�k��,6.5,91.4,0,0,0,0,0,0,1003.8,1018.1
2022-03-28T02:11:00+09:00,0.4,��쓌,1.5,�k�k��,6.6,92,0,0,0,0,0,0,1003.8,1018.1
2022-03-28T02:12:00+09:00,0.3,��,1.4,�k��,6.7,93.1,0,0,0,0,0,0,1003.8,1018.1
2022-03-28T02:13:00+09:00,0.4,��,1.3,��쐼,6.6,92.8,0,0,0,0,0,0,1003.8,1018.1
2022-03-28T02:14:00+09:00,0.4,��,1.3,��쐼,6.5,92.6,0,0,0,0,0,0,1003.7,1018
2022-03-28T02:15:00+09:00,0.5,��,1.7,��쐼,6.5,92.6,0,0,0,0,0,0,1003.7,1018
2022-03-28T02:16:00+09:00,0.6,��,1.8,��쐼,6.4,92.7,0,0,0,0,0,0,1003.7,1018
2022-03-28T02:17:00+09:00,0.7,��,1.8,��쐼,6.6,93.1,0,0,0,0,0,0,1003.7,1018
2022-03-28T02:18:00+09:00,0.7,��쐼,1.8,��쐼,6.5,93.4,0,0,0,0,0,0,1003.7,1018
2022-03-28T02:19:00+09:00,0.7,��쐼,1.8,��쐼,6.6,93.6,0,0,0,0,0,0,1003.8,1018.1
2022-03-28T02:20:00+09:00,0.6,��쐼,1.8,��쐼,6.5,94,0,0,0,0,0,0,1003.8,1018.1
2022-03-28T02:21:00+09:00,0.6,�쐼,1.8,��쐼,6.6,93.7,0,0,0,0,0,0,1003.8,1018.1
2022-03-28T02:22:00+09:00,0.6,�쐼,1.8,��쐼,6.7,94.1,0,0,0,0,0,0,1003.9,1018.2
2022-03-28T02:23:00+09:00,0.5,�쐼,1.8,��쐼,6.8,94.2,0,0,0,0,0,0,1003.8,1018.1
2022-03-28T02:24:00+09:00,0.5,���쐼,1.8,��쐼,6.9,94.8,0,0,0,0,0,0,1003.9,1018.2
2022-03-28T02:25:00+09:00,0.4,��,1.8,��쐼,6.6,93.8,0,0,0,0,0,0,1003.9,1018.2
2022-03-28T02:26:00+09:00,0.4,���k��,1.5,��,6.6,92.9,0,0,0,0,0,0,1004,1018.3
2022-03-28T02:27:00+09:00,0.3,���k��,1.5,��,6.7,93.4,0,0,0,0,0,0,1003.9,1018.2
2022-03-28T02:28:00+09:00,0.3,�k��,1.5,��,6.7,93.2,0,0,0,0,0,0,1004.1,1018.4
2022-03-28T02:29:00+09:00,0.4,�k�k��,1.5,��,6.7,93.2,0,0,0,0,0,0,1004.2,1018.5
2022-03-28T02:30:00+09:00,0.4,�k�k��,1.5,��,6.8,93.4,0,0,0,0,0,0,1004.3,1018.6
2022-03-28T02:31:00+09:00,0.5,�k�k��,2.3,�k��,7,93.7,0,0,0,0,0,0,1004.5,1018.8
2022-03-28T02:32:00+09:00,0.8,�k�k��,8.1,�k,7,93.4,0,0,0,0,0,0,1004.7,1019
2022-03-28T02:33:00+09:00,1.3,�k�k��,8.1,�k,6.9,93,0,0,0,0,0,0,1004.6,1018.9
2022-03-28T02:34:00+09:00,1.5,�k�k��,8.1,�k,7.1,92.8,0,0,0,0,0,0,1004.6,1018.9
2022-03-28T02:35:00+09:00,1.7,�k�k��,8.1,�k,7.2,93.2,0,0,0,0,0,0,1004.6,1018.9
2022-03-28T02:36:00+09:00,1.9,�k,8.1,�k,7,92.3,0,0,0,0,0,0,1004.7,1019
2022-03-28T02:37:00+09:00,2.4,�k,8.3,�k,7.2,92,0,0,0,0,0,0,1004.7,1019
2022-03-28T02:38:00+09:00,2.8,�k,8.3,�k,7.5,92.8,0,0,0,0,0,0,1004.7,1019
2022-03-28T02:39:00+09:00,3.3,�k,8.3,�k,7.5,92.5,0,0,0,0,0,0,1004.6,1018.9
2022-03-28T02:40:00+09:00,3.6,�k,8.3,�k,7.4,91.2,0,0,0,0,0,0,1004.8,1019.1
2022-03-28T02:41:00+09:00,3.8,�k,8.3,�k,7.4,90.5,0,0,0,0,0,0,1004.8,1019.1
2022-03-28T02:42:00+09:00,3.8,�k,8.3,�k,7.3,89.3,0,0,0,0,0,0,1004.9,1019.2
2022-03-28T02:43:00+09:00,3.6,�k,8.3,�k,7.4,89.2,0,0,0,0,0,0,1004.9,1019.2
2022-03-28T02:44:00+09:00,3.6,�k,8.3,�k,7.3,88.5,0,0,0,0,0,0,1004.9,1019.2
2022-03-28T02:45:00+09:00,3.6,�k,8.3,�k,7.5,88.5,0,0,0,0,0,0,1005,1019.3
2022-03-28T02:46:00+09:00,3.7,�k,8.3,�k,7.6,88.4,0,0,0,0,0,0,1005,1019.3
2022-03-28T02:47:00+09:00,3.4,�k,8,�k,7.9,88.3,0,0,0,0,0,0,1005.1,1019.3
2022-03-28T02:48:00+09:00,3.2,�k,8,�k,8.2,87.7,0,0,0,0,0,0,1005,1019.2
2022-03-28T02:49:00+09:00,3,�k,8,�k,8.4,86.1,0,0,0,0,0,0,1005.1,1019.3
2022-03-28T02:50:00+09:00,2.9,�k,7.2,�k�k��,8.8,85,0,0,0,0,0,0,1005,1019.2
2022-03-28T02:51:00+09:00,2.9,�k�k��,7.2,�k�k��,8.9,82.3,0,0,0,0,0,0,1005.1,1019.3
2022-03-28T02:52:00+09:00,2.9,�k�k��,7.2,�k�k��,9,80,0,0,0,0,0,0,1005.2,1019.4
2022-03-28T02:53:00+09:00,2.9,�k�k��,7.2,�k�k��,9.2,78.6,0,0,0,0,0,0,1005.2,1019.4
2022-03-28T02:54:00+09:00,2.9,�k�k��,7.2,�k�k��,9.4,77.3,0,0,0,0,0,0,1005.1,1019.3
2022-03-28T02:55:00+09:00,3,�k�k��,7.5,�k��,9.5,75.8,0,0,0,0,0,0,1005.2,1019.4
2022-03-28T02:56:00+09:00,3.2,�k�k��,7.8,�k,9.6,74.4,0,0,0,0,0,0,1005.2,1019.4
2022-03-28T02:57:00+09:00,3.5,�k�k��,9,�k�k��,9.6,73.5,0,0,0,0,0,0,1005.2,1019.4
2022-03-28T02:58:00+09:00,3.6,�k�k��,9,�k�k��,9.9,72.9,0,0,0,0,0,0,1005.3,1019.4
2022-03-28T02:59:00+09:00,3.5,�k,9,�k�k��,9.9,71.6,0,0,0,0,0,0,1005.3,1019.4
2022-03-28T03:00:00+09:00,3.7,�k,9,�k�k��,10,70.7,0,0,0,0,0,0,1005.3,1019.4
2022-03-28T03:01:00+09:00,3.8,�k,9,�k�k��,9.9,70.2,0,0,0,0,0,0,1005.4,1019.5
2022-03-28T03:02:00+09:00,3.8,�k,9,�k�k��,9.8,69.9,0,0,0,0,0,0,1005.4,1019.6
2022-03-28T03:03:00+09:00,4.2,�k,9.6,���k��,9.8,69.8,0,0,0,0,0,0,1005.2,1019.3
2022-03-28T03:04:00+09:00,4.6,�k�k��,9.6,���k��,9.9,69.3,0,0,0,0,0,0,1005.3,1019.4
2022-03-28T03:05:00+09:00,4.7,�k�k��,9.6,���k��,10,68.6,0,0,0,0,0,0,1005.4,1019.5
2022-03-28T03:06:00+09:00,4.6,�k�k��,9.6,���k��,9.9,68.2,0,0,0,0,0,0,1005.5,1019.6
2022-03-28T03:07:00+09:00,4.2,�k�k��,9.6,���k��,9.8,68.2,0,0,0,0,0,0,1005.5,1019.7
2022-03-28T03:08:00+09:00,4,�k�k��,9.6,���k��,9.8,68.7,0,0,0,0,0,0,1005.5,1019.7
2022-03-28T03:09:00+09:00,4,�k�k��,9.6,���k��,9.8,69.6,0,0,0,0,0,0,1005.5,1019.7
2022-03-28T03:10:00+09:00,3.8,�k��,9.6,���k��,9.7,69.8,0,0,0,0,0,0,1005.6,1019.8
2022-03-28T03:11:00+09:00,3.6,�k��,9.6,���k��,9.8,70.2,0,0,0,0,0,0,1005.6,1019.8
2022-03-28T03:12:00+09:00,3.4,�k��,9.6,���k��,9.8,69.9,0,0,0,0,0,0,1005.6,1019.8
2022-03-28T03:13:00+09:00,3.1,�k��,9,���k��,9.9,69.6,0,0,0,0,0,0,1005.7,1019.8
2022-03-28T03:14:00+09:00,2.8,�k�k��,6.6,�k��,9.9,69.4,0,0,0,0,0,0,1005.6,1019.7
2022-03-28T03:15:00+09:00,2.6,�k�k��,5.9,�k��,9.8,69.2,0,0,0,0,0,0,1005.7,1019.9
2022-03-28T03:16:00+09:00,2.5,�k�k��,5.9,�k��,9.8,69,0,0,0,0,0,0,1005.7,1019.9
2022-03-28T03:17:00+09:00,2.4,�k�k��,5.9,�k��,9.8,68.4,0,0,0,0,0,0,1005.7,1019.9
2022-03-28T03:18:00+09:00,2.6,�k�k��,5.9,�k��,9.9,68.4,0,0,0,0,0,0,1005.7,1019.8
2022-03-28T03:19:00+09:00,2.6,�k�k��,5.9,�k��,9.9,68.8,0,0,0,0,0,0,1005.7,1019.8
2022-03-28T03:20:00+09:00,2.6,�k�k��,5.9,�k��,9.8,68.8,0,0,0,0,0,0,1005.7,1019.9
2022-03-28T03:21:00+09:00,2.8,�k,5.9,�k��,9.8,69,0,0,0,0,0,0,1005.7,1019.9
2022-03-28T03:22:00+09:00,2.8,�k,5.9,�k��,9.8,69.3,0,0,0,0,0,0,1005.7,1019.9
2022-03-28T03:23:00+09:00,2.7,�k,5.9,�k��,9.9,68.7,0,0,0,0,0,0,1005.6,1019.7
2022-03-28T03:24:00+09:00,2.6,�k,5.3,�k��,9.9,68.1,0,0,0,0,0,0,1005.7,1019.8
2022-03-28T03:25:00+09:00,2.4,�k,5.3,�k��,9.9,67.6,0,0,0,0,0,0,1005.6,1019.7
2022-03-28T03:26:00+09:00,2.4,�k�k��,6.1,�k�k��,9.8,67.5,0,0,0,0,0,0,1005.8,1020
2022-03-28T03:27:00+09:00,2.7,�k�k��,6.1,�k�k��,9.8,67.6,0,0,0,0,0,0,1005.8,1020
2022-03-28T03:28:00+09:00,2.6,�k,6.1,�k�k��,9.8,67.4,0,0,0,0,0,0,1005.8,1020
2022-03-28T03:29:00+09:00,2.5,�k,6.1,�k�k��,9.8,66.9,0,0,0,0,0,0,1005.8,1020
2022-03-28T03:30:00+09:00,2.6,�k,6.1,�k�k��,9.9,67.1,0,0,0,0,0,0,1005.8,1020
2022-03-28T03:31:00+09:00,2.5,�k,6.1,�k�k��,9.9,66.9,0,0,0,0,0,0,1005.9,1020.1
2022-03-28T03:32:00+09:00,2.5,�k,6.1,�k�k��,9.9,66.1,0,0,0,0,0,0,1005.9,1020.1
2022-03-28T03:33:00+09:00,2.4,�k,6.1,�k�k��,10,65.9,0,0,0,0,0,0,1005.9,1020
2022-03-28T03:34:00+09:00,2.5,�k�k��,6.1,�k�k��,9.9,65.9,0,0,0,0,0,0,1005.9,1020.1
2022-03-28T03:35:00+09:00,2.6,�k�k��,6.1,�k�k��,9.8,65.3,0,0,0,0,0,0,1005.9,1020.1
2022-03-28T03:36:00+09:00,2.6,�k,6,�k��,9.8,65.4,0,0,0,0,0,0,1006,1020.2
2022-03-28T03:37:00+09:00,2.6,�k,5.9,�k�k��,9.8,65.5,0,0,0,0,0,0,1006,1020.2
2022-03-28T03:38:00+09:00,2.7,�k,5.9,�k�k��,9.9,65.8,0,0,0,0,0,0,1006,1020.2
2022-03-28T03:39:00+09:00,2.6,�k,5.9,�k�k��,9.8,65.5,0,0,0,0,0,0,1006,1020.2
2022-03-28T03:40:00+09:00,2.5,�k,5.9,�k�k��,9.7,65.4,0,0,0,0,0,0,1006.1,1020.3
2022-03-28T03:41:00+09:00,2.5,�k,5.9,�k�k��,9.7,65.3,0,0,0,0,0,0,1006,1020.2
2022-03-28T03:42:00+09:00,2.5,�k,5.9,�k�k��,9.8,65.4,0,0,0,0,0,0,1006.1,1020.3
2022-03-28T03:43:00+09:00,2.4,�k,5.9,�k�k��,9.9,65.4,0,0,0,0,0,0,1006.1,1020.3
2022-03-28T03:44:00+09:00,2.2,�k,5.9,�k�k��,9.9,64.8,0,0,0,0,0,0,1006.2,1020.4
2022-03-28T03:45:00+09:00,2.1,�k,5.9,�k�k��,9.8,64.7,0,0,0,0,0,0,1006.2,1020.4
2022-03-28T03:46:00+09:00,2.1,�k,5.9,�k�k��,9.8,64.5,0,0,0,0,0,0,1006.3,1020.5
2022-03-28T03:47:00+09:00,1.9,�k�k��,4.9,�k��,9.8,64.6,0,0,0,0,0,0,1006.3,1020.5
2022-03-28T03:48:00+09:00,1.9,�k�k��,4.9,�k��,9.8,64.6,0,0,0,0,0,0,1006.3,1020.5
2022-03-28T03:49:00+09:00,1.9,�k�k��,4.9,�k��,9.7,63.9,0,0,0,0,0,0,1006.3,1020.5
2022-03-28T03:50:00+09:00,1.9,�k�k��,4.9,�k��,9.7,64,0,0,0,0,0,0,1006.3,1020.5
2022-03-28T03:51:00+09:00,1.9,�k�k��,4.9,�k��,9.8,64,0,0,0,0,0,0,1006.3,1020.5
2022-03-28T03:52:00+09:00,1.9,�k�k��,4.9,�k��,9.7,63.8,0,0,0,0,0,0,1006.3,1020.5
2022-03-28T03:53:00+09:00,2,�k�k��,4.9,�k��,9.8,63.6,0,0,0,0,0,0,1006.4,1020.6
2022-03-28T03:54:00+09:00,2.1,�k�k��,5.4,�k,9.8,63.7,0,0,0,0,0,0,1006.4,1020.6
2022-03-28T03:55:00+09:00,2.3,�k�k��,6.4,�k,9.7,63.4,0,0,0,0,0,0,1006.5,1020.7
2022-03-28T03:56:00+09:00,2.3,�k�k��,6.4,�k,9.7,63.3,0,0,0,0,0,0,1006.5,1020.7
2022-03-28T03:57:00+09:00,2.3,�k�k��,6.4,�k,9.9,63.6,0,0,0,0,0,0,1006.6,1020.8
2022-03-28T03:58:00+09:00,2.3,�k�k��,6.4,�k,9.9,63.1,0,0,0,0,0,0,1006.5,1020.7
2022-03-28T03:59:00+09:00,2.3,�k�k��,6.4,�k,9.8,62.2,0,0,0,0,0,0,1006.5,1020.7
2022-03-28T04:00:00+09:00,2.4,�k�k��,6.4,�k,9.7,62.2,0,0,0,0,0,0,1006.6,1020.8
2022-03-28T04:01:00+09:00,2.3,�k�k��,6.4,�k,9.7,61.9,0,0,0,0,0,0,1006.6,1020.8
2022-03-28T04:02:00+09:00,2.3,�k�k��,6.4,�k,9.7,61.9,0,0,0,0,0,0,1006.7,1020.9
2022-03-28T04:03:00+09:00,2.3,�k�k��,6.4,�k,9.7,62.1,0,0,0,0,0,0,1006.7,1020.9
2022-03-28T04:04:00+09:00,2.3,�k�k��,6.4,�k,9.7,62.1,0,0,0,0,0,0,1006.8,1021
2022-03-28T04:05:00+09:00,2.2,�k�k��,4.7,�k�k��,9.7,61.7,0,0,0,0,0,0,1006.8,1021
2022-03-28T04:06:00+09:00,2.2,�k�k��,4.7,�k�k��,9.8,61.7,0,0,0,0,0,0,1006.8,1021
2022-03-28T04:07:00+09:00,2.1,�k�k��,4.7,�k�k��,9.8,61.6,0,0,0,0,0,0,1006.9,1021.1
2022-03-28T04:08:00+09:00,2.1,�k�k��,5,�k,9.8,61.5,0,0,0,0,0,0,1006.8,1021
2022-03-28T04:09:00+09:00,2.1,�k�k��,5,�k,9.7,61.2,0,0,0,0,0,0,1006.8,1021
2022-03-28T04:10:00+09:00,2.1,�k�k��,5,�k,9.8,60.9,0,0,0,0,0,0,1006.8,1021
2022-03-28T04:11:00+09:00,2.2,�k�k��,5,�k,9.8,60.7,0,0,0,0,0,0,1006.9,1021.1
2022-03-28T04:12:00+09:00,2.3,�k�k��,5.3,�k,9.8,60.9,0,0,0,0,0,0,1006.9,1021.1
2022-03-28T04:13:00+09:00,2.3,�k�k��,5.3,�k,9.8,60.6,0,0,0,0,0,0,1006.9,1021.1
2022-03-28T04:14:00+09:00,2.5,�k�k��,6.9,�k�k��,9.8,60.2,0,0,0,0,0,0,1006.9,1021.1
2022-03-28T04:15:00+09:00,2.5,�k�k��,6.9,�k�k��,9.8,59.5,0,0,0,0,0,0,1007,1021.2
2022-03-28T04:16:00+09:00,2.7,�k�k��,6.9,�k�k��,9.9,59.6,0,0,0,0,0,0,1007,1021.2
2022-03-28T04:17:00+09:00,2.7,�k�k��,6.9,�k�k��,9.8,59.5,0,0,0,0,0,0,1007.1,1021.3
2022-03-28T04:18:00+09:00,2.7,�k�k��,6.9,�k�k��,9.7,59.8,0,0,0,0,0,0,1007.1,1021.3
2022-03-28T04:19:00+09:00,2.7,�k�k��,6.9,�k�k��,9.7,59.7,0,0,0,0,0,0,1007.1,1021.3
2022-03-28T04:20:00+09:00,2.7,�k�k��,6.9,�k�k��,9.8,59.5,0,0,0,0,0,0,1007.2,1021.4
2022-03-28T04:21:00+09:00,2.8,�k�k��,6.9,�k�k��,9.8,59.2,0,0,0,0,0,0,1007.2,1021.4
2022-03-28T04:22:00+09:00,2.9,�k�k��,6.9,�k�k��,9.8,58.7,0,0,0,0,0,0,1007.1,1021.3
2022-03-28T04:23:00+09:00,3,�k�k��,6.9,�k�k��,9.8,58.3,0,0,0,0,0,0,1007.2,1021.4
2022-03-28T04:24:00+09:00,2.9,�k�k��,6.1,�k��,9.8,58.1,0,0,0,0,0,0,1007.2,1021.4
2022-03-28T04:25:00+09:00,2.8,�k�k��,6.1,�k��,9.7,58.2,0,0,0,0,0,0,1007.3,1021.5
2022-03-28T04:26:00+09:00,2.6,�k�k��,6.1,�k��,9.8,58.6,0,0,0,0,0,0,1007.2,1021.4
2022-03-28T04:27:00+09:00,2.6,�k�k��,6.1,�k��,9.7,58.4,0,0,0,0,0,0,1007.2,1021.4
2022-03-28T04:28:00+09:00,2.6,�k�k��,6.1,�k��,9.7,58.4,0,0,0,0,0,0,1007.2,1021.4
2022-03-28T04:29:00+09:00,2.6,�k�k��,6.1,�k��,9.7,58.9,0,0,0,0,0,0,1007.2,1021.4
2022-03-28T04:30:00+09:00,2.6,�k�k��,6.1,�k��,9.7,59.1,0,0,0,0,0,0,1007.2,1021.4
2022-03-28T04:31:00+09:00,2.6,�k�k��,6.1,�k��,9.7,58.9,0,0,0,0,0,0,1007.2,1021.4
2022-03-28T04:32:00+09:00,2.7,�k�k��,6.8,�k�k��,9.8,58.5,0,0,0,0,0,0,1007.1,1021.3
2022-03-28T04:33:00+09:00,2.5,�k�k��,6.8,�k�k��,9.7,58.2,0,0,0,0,0,0,1007.2,1021.4
2022-03-28T04:34:00+09:00,2.5,�k�k��,6.8,�k�k��,9.6,58.4,0,0,0,0,0,0,1007.2,1021.4
2022-03-28T04:35:00+09:00,2.6,�k�k��,6.8,�k�k��,9.7,58.9,0,0,0,0,0,0,1007.2,1021.4
2022-03-28T04:36:00+09:00,2.6,�k�k��,6.8,�k�k��,9.6,58.8,0,0,0,0,0,0,1007.2,1021.4
2022-03-28T04:37:00+09:00,2.8,�k�k��,7,�k,9.6,59.1,0,0,0,0,0,0,1007.2,1021.4
2022-03-28T04:38:00+09:00,3,�k�k��,7.4,�k,9.7,58.9,0,0,0,0,0,0,1007.2,1021.4
2022-03-28T04:39:00+09:00,3.1,�k�k��,7.4,�k,9.7,58,0,0,0,0,0,0,1007.1,1021.3
2022-03-28T04:40:00+09:00,3.2,�k,7.4,�k,9.8,57.5,0,0,0,0,0,0,1007.1,1021.3
2022-03-28T04:41:00+09:00,3.2,�k,8.8,�k��,9.8,57.2,0,0,0,0,0,0,1007.2,1021.4
2022-03-28T04:42:00+09:00,3.2,�k�k��,8.8,�k��,9.8,56.9,0,0,0,0,0,0,1007.3,1021.5
2022-03-28T04:43:00+09:00,3.4,�k�k��,8.8,�k��,9.8,57,0,0,0,0,0,0,1007.2,1021.4
2022-03-28T04:44:00+09:00,3.5,�k�k��,8.8,�k��,9.7,56.7,0,0,0,0,0,0,1007.2,1021.4
2022-03-28T04:45:00+09:00,3.5,�k�k��,8.8,�k��,9.8,56.9,0,0,0,0,0,0,1007.2,1021.4
2022-03-28T04:46:00+09:00,3.4,�k�k��,8.8,�k��,9.7,57.1,0,0,0,0,0,0,1007.2,1021.4
2022-03-28T04:47:00+09:00,3.3,�k�k��,8.8,�k��,9.7,57.6,0,0,0,0,0,0,1007.3,1021.5
2022-03-28T04:48:00+09:00,3.1,�k�k��,8.8,�k��,9.7,57.8,0,0,0,0,0,0,1007.3,1021.5
2022-03-28T04:49:00+09:00,3.1,�k�k��,8.8,�k��,9.7,58.4,0,0,0,0,0,0,1007.3,1021.5
2022-03-28T04:50:00+09:00,3,�k�k��,8.8,�k��,9.6,58.6,0,0,0,0,0,0,1007.3,1021.5
2022-03-28T04:51:00+09:00,3,�k,8.4,�k��,9.7,59,0,0,0,0,0,0,1007.3,1021.5
2022-03-28T04:52:00+09:00,3,�k,7.2,�k,9.8,59.6,0,0,0,0,0,0,1007.4,1021.6
2022-03-28T04:53:00+09:00,3.1,�k,7.7,�k,9.8,58.8,0,0,0,0,0,0,1007.5,1021.7
2022-03-28T04:54:00+09:00,3.3,�k,7.7,�k,9.8,58.5,0,0,0,0,0,0,1007.5,1021.7
2022-03-28T04:55:00+09:00,3.4,�k,7.7,�k,9.8,59,0,0,0,0,0,0,1007.6,1021.8
2022-03-28T04:56:00+09:00,3.5,�k,7.7,�k,9.6,58.8,0,0,0,0,0,0,1007.6,1021.8
2022-03-28T04:57:00+09:00,3.5,�k,7.7,�k,9.6,59.3,0,0,0,0,0,0,1007.7,1021.9
2022-03-28T04:58:00+09:00,3.7,�k,7.7,�k,9.5,59.4,0,0,0,0,0,0,1007.6,1021.8
2022-03-28T04:59:00+09:00,3.8,�k,7.7,�k,9.5,59.2,0,0,0,0,0,0,1007.6,1021.8
2022-03-28T05:00:00+09:00,4,�k,7.7,�k,9.5,58.4,0,0,0,0,0,0,1007.7,1021.9
2022-03-28T05:01:00+09:00,4,�k,7.7,�k,9.5,58.2,0,0,0,0,0,0,1007.8,1022